Flag for U.S.A. Weather past 2 weeks in Fairbanks, Alaska, U.S.A.

38 °F

Mostly cloudy.

Feels Like: 31 °F
Forecast: 31 / 38 °F
Wind: 10 mph from Northeast

Location: Wainwright U. S. Army Airfield

Current Time: Oct 9, 2015 at 1:14:41 AM

Latest Report: Oct 9, 2015 at 12:58 AM

Visibility: 10 mi

Pressure: 29.43 "Hg

Humidity: 61%

Dew point: 26 °F

Location of FairbanksLocation

Historic Weather in Fairbanks — Graph


Fairbanks temperature yesterday

Maximum temperature yesterday: 50 °F (at 2:58 PM)
Minimum temperature yesterday: 34 °F (at 7:58 AM)
Average temperature yesterday: 40 °F

Past Weeks' High & Low Weather Summary

High50 °F (Oct 8, 2:58 PM)100% (Sep 25, 2:58 PM)30.52 "Hg (Sep 25, 2:58 PM)
Low15 °F (Oct 1, 8:58 AM)40% (Sep 24, 4:58 PM)29.11 "Hg (Sep 29, 11:54 AM)
Average34 °F86%29.80 "Hg
* Reported Sep 23 11:58 PM — Oct 8 11:58 PM, Fairbanks, Weather by CustomWeather, © 2015

Note: Actual official high and low records may vary slightly from our data, if they occured in-between our weather recording intervals... More about our weather records


Fairbanks weather history for previous 24 hours

Time TempWeatherWind HumidityBarometerVisibility
11:58 PM
Thu, Oct 8
38 °FPassing clouds.8 mph62%29.44 "Hg10 mi
10:58 PM38 °FPassing clouds.3 mph60%29.46 "Hg10 mi
9:58 PM38 °FClear.8 mph59%29.46 "Hg10 mi
8:58 PM39 °FClear.14 mph58%29.46 "Hg10 mi
7:58 PM39 °FPassing clouds.10 mph58%29.48 "Hg10 mi
6:58 PM42 °FSunny.14 mph54%29.48 "Hg10 mi
5:58 PM46 °FSunny.12 mph46%29.47 "Hg10 mi
4:58 PM50 °FSunny.12 mph44%29.47 "Hg10 mi
3:58 PM50 °FSunny.10 mph43%29.48 "Hg10 mi
2:58 PM50 °FSunny.13 mph42%29.49 "Hg10 mi
1:58 PM49 °FBroken clouds.10 mph42%29.52 "Hg25 mi
12:58 PM49 °FBroken clouds.14 mph41%29.53 "Hg25 mi
11:58 AM45 °FPartly sunny.7 mph48%29.54 "Hg25 mi
10:58 AM41 °FPartly sunny.1 mph54%29.57 "Hg25 mi
9:58 AM37 °FBroken clouds.2 mph62%29.58 "Hg25 mi
8:58 AM35 °FPassing clouds.7 mph68%29.60 "Hg9 mi
7:58 AM34 °FPassing clouds.7 mph71%29.61 "Hg10 mi
6:58 AM35 °FPassing clouds.8 mph69%29.63 "Hg10 mi
5:58 AM35 °FClear.7 mph70%29.65 "Hg10 mi
4:58 AM35 °FClear.7 mph72%29.67 "Hg10 mi
3:58 AM36 °FClear.8 mph69%29.69 "Hg10 mi
2:58 AM34 °FClear.5 mph74%29.70 "Hg10 mi
1:58 AM36 °FOvercast.7 mph68%29.72 "Hg10 mi
Weather by CustomWeather, © 2015

See weather overviewHow to use our weather pages